[[{"header":{"parameterUnit":"m.s-1","parameterCategory":2,"la1":30.2991,"la2":30.254,"lo1":-89.0895,"lo2":-89.0444,"dy":0.0017,"dx":0.0017,"nx":28,"ny":28,"refTime":"2025-07-10T21:00:00:Z","depth":"0","parameterNumber":2,"parameterNumberName":"U-component_of_CURRENTS"},"data":[0,0,0,0,0,0,0,0,0,0,0,0,0,0,0,0,0,0,0,0,0,0,0,0,0,0,0,0,0,0,0,0,0,0,0,0,0,0,0,0,0,0,0,0,0,0,0,0,0,0,0,0,0,0,0,0,0,0,0.1899,0.19,0,0.1917,0.1917,0.1916,0.1865,0.1864,0.1863,0.1862,0.1879,0.188,0.1882,0,0,0,0,0,0,0,0,0,0,0,0,0,0.1756,0.1759,0.1899,0.19,0.1901,0.1917,0.1917,0.1916,0.1866,0.1864,0.1863,0.1861,0.1878,0.188,0.1882,0,0,0,0,0,0,0,0,0,0,0,0,0,0.1796,0.176,0.1899,0.188,0.1879,0.1917,0.1917,0.1916,0.1866,0.1864,0.1862,0.1861,0.1877,0.188,0.1882,0.1931,0,0,0.1889,0.189,0,0,0,0,0,0,0,0,0.1794,0.1801,0.1883,0.1882,0.1881,0.1891,0.1872,0.1923,0.1866,0.1866,0.1862,0.186,0.1887,0.1888,0.1889,0.1932,0.1933,0.1889,0.1891,0.1892,0.1892,0,0,0,0,0,0,0,0.1791,0.18,0.1902,0.1883,0.1882,0.1849,0.1852,0.1881,0.1883,0.1866,0.1864,0.1873,0.1885,0.1887,0.1889,0.1933,0.1889,0.1891,0.1893,0.1894,0.2104,0.2108,0,0,0,0,0,0,0.1804,0.1798,0.1901,0.1903,0.1837,0.1853,0.1857,0.1886,0.1882,0.1882,0.1875,0.1871,0.1884,0.1887,0.189,0.2022,0.1892,0.1894,0.1895,0.2099,0.2105,0.2109,0,0,0,0,0,0,0.1801,0.1814,0.1901,0.1852,0.1861,0.1859,0.189,0.1887,0.1896,0.189,0.1887,0.1887,0.1883,0.1887,0.1948,0.2019,0.1895,0.1897,0.2095,0.2101,0.2107,0.2239,0,0,0,0,0,0,0.1798,0.1814,0.1847,0.1854,0.1865,0.196,0.1892,0.1889,0.1906,0.1901,0.1901,0.1899,0.1882,0.1945,0.195,0.202,0.1899,0.2089,0.2097,0.2105,0.2229,0.2249,0.2266,0,0,0,0,0,0.1793,0.1877,0.1849,0.1862,0.191,0.1963,0.1967,0.1953,0.1909,0.1945,0.194,0.1899,0.1998,0.195,0.1955,0.2027,0.2085,0.2095,0.2104,0.2221,0.2245,0.2265,0,0,0,0,0,0,0.1853,0.188,0.185,0.194,0.1955,0.1957,0.1998,0.1968,0.1989,0.1981,0.1949,0.1951,0.2034,0.2021,0.1968,0.2116,0.2038,0.2049,0.2125,0.2148,0.2166,0.2177,0.1901,0,0,0,0,0,0.1876,0.193,0.1939,0.2008,0.2022,0.2001,0.2019,0.2006,0.2021,0.2025,0.2028,0.2041,0.208,0.2102,0.2134,0.2212,0.2256,0.2266,0.2285,0.23,0.2317,0.247,0.2503,0.214,0.214,0.214,0,0,0.1919,0.1938,0.197,0.2021,0.2025,0.208,0.2009,0.2057,0.2088,0.2029,0.2094,0.2108,0.2116,0.2206,0.2242,0.2201,0.2433,0.2312,0.2325,0.2333,0.2483,0.2519,0.255,0.2146,0.2145,0.2144,0,0,0.2027,0.2045,0.2114,0.2143,0.2166,0.2158,0.2176,0.2191,0.2183,0.2243,0.2216,0.2277,0.2322,0.2357,0.2372,0.2516,0.2525,0.2528,0.2628,0.2777,0.2808,0.2836,0.2957,0.2994,0.2536,0.2536,0.2536,0,0.2068,0.2156,0.2146,0.2219,0.2254,0.2199,0.2276,0.2274,0.2305,0.2319,0.2286,0.2396,0.2398,0.251,0.2559,0.2557,0.2637,0.2536,0.2802,0.283,0.2856,0.2973,0.3012,0.2544,0.2543,0.2542,0.2541,0,0.2213,0.2285,0.2339,0.2396,0.2436,0.2503,0.2492,0.2518,0.2491,0.2487,0.2581,0.2601,0.2662,0.2687,0.266,0.2849,0.2846,0.2807,0.2741,0.2901,0.3013,0.3052,0.2554,0.2552,0.2549,0.2548,0,0,0.2297,0.2412,0.2428,0.2474,0.2533,0.2576,0.2633,0.2672,0.2703,0.2734,0.2798,0.2881,0.2875,0.2895,0.2893,0.3017,0.3265,0.3,0.3004,0.3112,0.3608,0.3489,0.3519,0.3287,0.3294,0.33,0.3618,0,0.2401,0.2556,0.2585,0.2721,0.2801,0.2783,0.2848,0.2872,0.2862,0.2912,0.2924,0.2993,0.2954,0.2995,0.3119,0.3208,0.3372,0.3182,0.3443,0.345,0.332,0.3561,0.3457,0.3721,0.3655,0.3662,0.3666,0,0.2523,0.2613,0.2764,0.2876,0.2906,0.2969,0.3032,0.3081,0.3115,0.3113,0.3169,0.3157,0.33,0.3245,0.3534,0.3421,0.3549,0.3628,0.3641,0.3508,0.3404,0.355,0.3794,0.3716,0.3725,0.3721,0.3716,0,0.2575,0.2731,0.2844,0.2892,0.3016,0.3058,0.31,0.3149,0.3174,0.3235,0.3271,0.3394,0.3456,0.3645,0.3727,0.3688,0.4033,0.3991,0.4026,0.4017,0.3965,0.3938,0.4153,0.4277,0.4276,0.4276,0.4275,0,0.2683,0.2775,0.2872,0.2948,0.3046,0.3126,0.3207,0.3239,0.331,0.3358,0.3383,0.3455,0.3571,0.3708,0.3827,0.402,0.4127,0.411,0.4122,0.4005,0.398,0.3928,0.3899,0.4287,0.4285,0.4283,0.428,0,0.2723,0.2807,0.2921,0.3046,0.3075,0.3136,0.3219,0.3267,0.3364,0.3426,0.3454,0.3554,0.3727,0.3817,0.4091,0.4136,0.4252,0.4377,0.4195,0.4178,0.4104,0.4084,0.4147,0.408,0.4528,0.4527,0.4527,0,0.2757,0.2831,0.2936,0.2964,0.301,0.3099,0.3143,0.3251,0.329,0.348,0.3506,0.3677,0.377,0.4075,0.4144,0.4343,0.426,0.4386,0.4289,0.4144,0.4136,0.3932,0.3856,0.4305,0.4302,0.43,0.4299,0,0.2793,0.2811,0.2881,0.2931,0.2973,0.3024,0.3099,0.314,0.3278,0.3371,0.3512,0.3635,0.3871,0.3974,0.4161,0.4281,0.4195,0.4352,0.4301,0.4079,0.3784,0.3704,0.4019,0.4282,0.4284,0.4285,0.4286,0.4287,0.2754,0.2776,0.2834,0.2869,0.2903,0.2924,0.2941,0.3027,0.3111,0.323,0.3422,0.3592,0.385,0.4076,0.4126,0.4123,0.4098,0.4129,0.4159,0.3992,0.3797,0.4033,0.4211,0.4212,0.4214,0.4214,0.4215,0,0.2685,0.2727,0.2762,0.2792,0.2779,0.2832,0.2886,0.2899,0.2951,0.3105,0.3237,0.3536,0.3716,0.3884,0.3974,0.3949,0.3813,0.3918,0.3672,0.3644,0.3991,0.3843,0.3825,0.3825,0.3825,0.3825,0.3825,0.3825,0.2661,0.2671,0.2699,0.2663,0.2669,0.2642,0.2651,0.268,0.2772,0.2886,0.3023,0.3196,0.3544,0.3845,0.3861,0.3815,0.3628,0.3496,0.3506,0.3805,0.3825,0.3845,0.3699,0.3651,0.3651,0.3005,0.3001,0.2998]},{"header":{"parameterUnit":"m.s-1","parameterCategory":2,"la1":30.2991,"la2":30.254,"lo1":-89.0895,"lo2":-89.0444,"dy":0.0017,"dx":0.0017,"nx":28,"ny":28,"refTime":"2025-07-10T21:00:00:Z","depth":"0","parameterNumber":3,"parameterNumberName":"V-component_of_CURRENTS"},"data":[0,0,0,0,0,0,0,0,0,0,0,0,0,0,0,0,0,0,0,0,0,0,0,0,0,0,0,0,0,0,0,0,0,0,0,0,0,0,0,0,0,0,0,0,0,0,0,0,0,0,0,0,0,0,0,0,0,0,0.0468,0.0467,0,0.0435,0.0435,0.0434,0.0407,0.0407,0.0407,0.0406,0.0345,0.0343,0.0342,0,0,0,0,0,0,0,0,0,0,0,0,0,0.0475,0.0476,0.0468,0.0467,0.0467,0.0435,0.0435,0.0434,0.0407,0.0407,0.0407,0.0406,0.0345,0.0343,0.0342,0,0,0,0,0,0,0,0,0,0,0,0,0,0.0461,0.0476,0.0468,0.0449,0.0447,0.0435,0.0435,0.0434,0.0407,0.0407,0.0406,0.0406,0.0345,0.0344,0.0342,0.034,0,0,0.0335,0.0335,0,0,0,0,0,0,0,0,0.0462,0.0461,0.0452,0.045,0.0448,0.0424,0.0415,0.0401,0.0408,0.0423,0.0406,0.0406,0.0368,0.0365,0.0361,0.0337,0.0334,0.0335,0.0334,0.0333,0.0333,0,0,0,0,0,0,0,0.0463,0.0462,0.0455,0.0452,0.0449,0.0431,0.0429,0.0412,0.0399,0.0422,0.042,0.0415,0.0367,0.0363,0.0359,0.0333,0.0335,0.0334,0.0332,0.0332,0.0402,0.0405,0,0,0,0,0,0,0.0468,0.0463,0.0456,0.0454,0.0453,0.0432,0.0429,0.0433,0.04,0.0394,0.0416,0.0414,0.0366,0.0361,0.0357,0.0455,0.0333,0.0331,0.033,0.0399,0.0403,0.0406,0,0,0,0,0,0,0.0468,0.0468,0.0458,0.0457,0.0454,0.0432,0.0436,0.0432,0.0428,0.0395,0.0389,0.0415,0.0366,0.036,0.0363,0.0448,0.0331,0.0329,0.0395,0.04,0.0404,0.0585,0,0,0,0,0,0,0.0469,0.0469,0.0475,0.0458,0.0454,0.0471,0.0437,0.0432,0.0425,0.0423,0.0393,0.0386,0.0365,0.0366,0.0361,0.0443,0.0327,0.0392,0.0398,0.0403,0.0575,0.0595,0.0612,0,0,0,0,0,0.047,0.0495,0.0476,0.0475,0.0464,0.0472,0.047,0.0451,0.0426,0.0441,0.0422,0.0387,0.04,0.0366,0.0359,0.0443,0.0389,0.0396,0.0403,0.0567,0.0591,0.0612,0,0,0,0,0,0,0.0518,0.0493,0.0473,0.0493,0.0486,0.0467,0.0476,0.0455,0.045,0.0444,0.0405,0.04,0.0443,0.0408,0.0371,0.0482,0.0397,0.0403,0.0525,0.0547,0.0565,0.0602,0.0325,0,0,0,0,0,0.0526,0.0529,0.0509,0.0526,0.052,0.0493,0.0491,0.048,0.047,0.0466,0.0456,0.045,0.0467,0.0474,0.0474,0.0516,0.0478,0.0572,0.0591,0.0607,0.0634,0.0634,0.0655,0.0429,0.0429,0.0429,0,0,0.055,0.0536,0.0539,0.0534,0.0521,0.0559,0.0492,0.05,0.0552,0.046,0.0527,0.0504,0.0489,0.0555,0.0573,0.0535,0.0652,0.0616,0.063,0.0648,0.0643,0.0665,0.0685,0.0433,0.0433,0.0432,0,0,0.0611,0.0585,0.0611,0.0618,0.0606,0.06,0.0605,0.0598,0.0611,0.0654,0.0622,0.0652,0.0659,0.0694,0.0704,0.082,0.0744,0.0816,0.095,0.0951,0.0969,0.0985,0.0967,0.098,0.0834,0.0835,0.0835,0,0.0648,0.0681,0.0624,0.0664,0.0691,0.0629,0.0691,0.0704,0.071,0.0736,0.0701,0.0761,0.0746,0.0846,0.0901,0.0869,0.0832,0.0867,0.0975,0.099,0.1003,0.0981,0.0993,0.0844,0.0843,0.0842,0.0841,0,0.0732,0.0771,0.0792,0.0826,0.0841,0.0886,0.089,0.0918,0.0915,0.0928,0.1004,0.0992,0.1023,0.1045,0.1012,0.1121,0.1051,0.0991,0.0919,0.1037,0.1006,0.1015,0.0858,0.0854,0.0852,0.0849,0,0,0.0829,0.0848,0.0867,0.0909,0.0937,0.0963,0.1045,0.1104,0.1162,0.1182,0.1259,0.1327,0.1285,0.1296,0.1264,0.1292,0.136,0.1194,0.119,0.1178,0.1342,0.1224,0.1221,0.1302,0.1304,0.1307,0.1283,0,0.0934,0.1029,0.1018,0.1145,0.1203,0.1187,0.1279,0.1317,0.1328,0.1383,0.1385,0.1435,0.139,0.14,0.1428,0.1366,0.1391,0.1371,0.1228,0.1224,0.1107,0.1231,0.1186,0.1154,0.1291,0.1292,0.1293,0,0.1048,0.1102,0.1217,0.131,0.1335,0.1399,0.1495,0.157,0.1613,0.1621,0.165,0.1597,0.1659,0.1574,0.1575,0.1552,0.1476,0.1428,0.1423,0.126,0.1124,0.1058,0.1164,0.0956,0.1306,0.1305,0.1304,0,0.1149,0.1256,0.1345,0.1382,0.147,0.1527,0.1584,0.1645,0.1721,0.175,0.1792,0.179,0.1807,0.1734,0.1621,0.1592,0.1578,0.1509,0.1343,0.1332,0.1242,0.1218,0.1134,0.1513,0.1513,0.1513,0.1513,0,0.1286,0.1372,0.1395,0.1462,0.1588,0.1622,0.1756,0.1798,0.1878,0.1977,0.192,0.1992,0.1847,0.1793,0.167,0.1539,0.1611,0.1401,0.1336,0.1301,0.1284,0.1051,0.0931,0.1512,0.1513,0.1513,0.1513,0,0.1383,0.1407,0.1509,0.1597,0.1632,0.1718,0.1849,0.1941,0.2024,0.2139,0.2153,0.2153,0.2073,0.1899,0.1761,0.1615,0.1338,0.1406,0.136,0.1291,0.0915,0.0807,0.066,0.0531,0.123,0.1227,0.1225,0,0.1438,0.1495,0.1574,0.1624,0.1663,0.1788,0.1881,0.1993,0.2087,0.2256,0.2317,0.2272,0.2276,0.2027,0.1674,0.1399,0.1242,0.1197,0.1145,0.0919,0.0752,0.0694,0.0592,0.1102,0.1099,0.1096,0.1094,0,0.1536,0.1532,0.1589,0.1679,0.1765,0.1887,0.2022,0.2119,0.2266,0.2382,0.2517,0.2547,0.2292,0.1982,0.1569,0.1375,0.1004,0.1132,0.0932,0.0686,0.0588,0.0423,0.1073,0.1071,0.1073,0.1075,0.1076,0.1077,0.1562,0.1597,0.1635,0.1724,0.1818,0.195,0.2057,0.2194,0.2359,0.2536,0.2612,0.2705,0.2326,0.1741,0.1404,0.0741,0.0781,0.0604,0.0506,0.048,0.0315,0.0897,0.0786,0.0787,0.0788,0.0788,0.0788,0,0.1586,0.1618,0.1689,0.1782,0.1871,0.1934,0.2125,0.2229,0.2389,0.2567,0.2695,0.2624,0.2086,0.1548,0.0665,0.023,0.0094,0.0021,-0.0047,-0.0112,0.0443,0.0393,0.0151,0.0151,0.0151,0.0151,0.0151,0.0152,0.1601,0.1644,0.1676,0.18,0.1871,0.2018,0.2121,0.2266,0.2416,0.2607,0.2705,0.279,0.2403,0.0973,-0.0054,-0.0265,-0.0559,-0.0628,-0.0769,-0.0379,-0.0331,-0.0285,-0.0357,-0.0753,-0.0754,-0.1273,-0.1278,-0.1282]}],[{"header":{"parameterUnit":"m.s-1","parameterCategory":2,"la1":30.2991,"la2":30.254,"lo1":-89.0895,"lo2":-89.0444,"dy":0.0017,"dx":0.0017,"nx":28,"ny":28,"refTime":"2025-07-10T21:00:00:Z","depth":"2","parameterNumber":2,"parameterNumberName":"U-component_of_CURRENTS"},"data":[0,0,0,0,0,0,0,0,0,0,0,0,0,0,0,0,0,0,0,0,0,0,0,0,0,0,0,0,0,0,0,0,0,0,0,0,0,0,0,0,0,0,0,0,0,0,0,0,0,0,0,0,0,0,0,0,0,0,0.042,0.042,0,0.0416,0.0415,0.0415,0.0389,0.0389,0.0389,0.0388,0.0371,0.0371,0.0371,0,0,0,0,0,0,0,0,0,0,0,0,0,0.0375,0.0376,0.042,0.042,0.042,0.0416,0.0415,0.0415,0.0389,0.0389,0.0389,0.0388,0.0371,0.0371,0.0371,0,0,0,0,0,0,0,0,0,0,0,0,0,0.0382,0.0376,0.042,0.0409,0.0408,0.0416,0.0415,0.0415,0.039,0.0389,0.0388,0.0388,0.0371,0.0371,0.0371,0.038,0,0,0.037,0.037,0,0,0,0,0,0,0,0,0.0382,0.0383,0.041,0.041,0.0409,0.0405,0.0393,0.0404,0.039,0.0394,0.0388,0.0388,0.0383,0.0382,0.0379,0.0379,0.0378,0.037,0.037,0.037,0.037,0,0,0,0,0,0,0,0.0381,0.0383,0.0415,0.0411,0.041,0.0394,0.0394,0.0395,0.0389,0.0393,0.0392,0.0396,0.0382,0.0379,0.0378,0.0378,0.037,0.037,0.037,0.037,0.0424,0.0426,0,0,0,0,0,0,0.039,0.0383,0.0415,0.0415,0.0397,0.0396,0.0396,0.0404,0.0389,0.0387,0.0397,0.0395,0.0379,0.0378,0.0377,0.0411,0.037,0.037,0.0369,0.0423,0.0425,0.0426,0,0,0,0,0,0,0.0389,0.0393,0.0416,0.0401,0.0403,0.0398,0.0407,0.0405,0.0402,0.0393,0.039,0.0397,0.0379,0.0378,0.039,0.0409,0.0369,0.0369,0.0421,0.0423,0.0426,0.0463,0,0,0,0,0,0,0.0388,0.0393,0.04,0.0402,0.0404,0.0429,0.0408,0.0405,0.0407,0.0405,0.0392,0.039,0.0378,0.039,0.039,0.0408,0.0369,0.0419,0.0422,0.0425,0.046,0.0467,0.0472,0,0,0,0,0,0.0386,0.0405,0.0401,0.0404,0.0415,0.0431,0.043,0.0422,0.0408,0.0415,0.0409,0.039,0.0409,0.0391,0.039,0.0409,0.0417,0.0421,0.0425,0.0457,0.0465,0.0472,0,0,0,0,0,0,0.039,0.0404,0.04,0.0421,0.0428,0.0427,0.0437,0.0426,0.0426,0.0424,0.0405,0.0404,0.0423,0.0416,0.0397,0.0437,0.0412,0.0416,0.0438,0.0445,0.0451,0.049,0.0369,0,0,0,0,0,0.0395,0.0413,0.042,0.0438,0.0445,0.0439,0.0443,0.0438,0.0439,0.0438,0.0433,0.0432,0.0438,0.044,0.0445,0.0463,0.0504,0.0478,0.0484,0.0489,0.0523,0.0636,0.0657,0.0438,0.0438,0.0438,0,0,0.0402,0.0413,0.0422,0.044,0.0445,0.0456,0.044,0.0455,0.0459,0.0437,0.045,0.0453,0.0448,0.0471,0.0479,0.0465,0.0563,0.0494,0.0498,0.053,0.0643,0.0664,0.0683,0.044,0.044,0.044,0,0,0.0425,0.0436,0.0454,0.0462,0.0476,0.0475,0.0481,0.0487,0.0487,0.05,0.049,0.0506,0.0511,0.0516,0.0516,0.0561,0.0592,0.0568,0.0628,0.0737,0.0757,0.0775,0.0809,0.083,0.057,0.057,0.057,0,0.0427,0.045,0.0462,0.0478,0.0483,0.0485,0.0495,0.0502,0.0511,0.0574,0.0511,0.0595,0.0531,0.0614,0.0591,0.0572,0.0639,0.0593,0.0748,0.0766,0.0784,0.0816,0.0839,0.0572,0.0572,0.0572,0.0572,0,0.0458,0.0472,0.0487,0.0504,0.0513,0.0528,0.0537,0.0554,0.0554,0.0627,0.072,0.0661,0.0752,0.069,0.0624,0.0736,0.0741,0.0742,0.073,0.0809,0.0836,0.0859,0.0576,0.0575,0.0574,0.0574,0,0,0.0456,0.0499,0.0497,0.0507,0.0524,0.0535,0.0559,0.0643,0.0738,0.0761,0.0897,0.0843,0.093,0.0932,0.0885,0.0893,0.0971,0.0861,0.0866,0.0897,0.1203,0.115,0.1169,0.1037,0.1042,0.1046,0.1154,0,0.0466,0.05,0.0514,0.0534,0.0549,0.0562,0.0586,0.0676,0.0784,0.093,0.0973,0.1071,0.1002,0.1012,0.106,0.0941,0.1045,0.0941,0.1122,0.1126,0.1073,0.1199,0.1112,0.1201,0.1177,0.1181,0.1183,0,0.047,0.0496,0.0521,0.0553,0.0561,0.0574,0.0679,0.0714,0.095,0.1019,0.124,0.1357,0.1372,0.1292,0.1327,0.1281,0.1308,0.1228,0.1233,0.12,0.1119,0.1129,0.1243,0.1222,0.1219,0.1216,0.1213,0,0.0449,0.0488,0.0508,0.0516,0.0562,0.0577,0.06,0.0794,0.0861,0.113,0.1223,0.1456,0.1446,0.1535,0.1449,0.1414,0.1481,0.1425,0.1463,0.1455,0.1423,0.1405,0.163,0.163,0.163,0.1629,0.1629,0,0.0437,0.0449,0.0503,0.0512,0.0544,0.0573,0.0678,0.0744,0.0912,0.1064,0.1299,0.1399,0.1511,0.1615,0.1573,0.1566,0.1645,0.1518,0.1517,0.1425,0.1407,0.146,0.1439,0.1633,0.1633,0.1632,0.1631,0,0.0398,0.0434,0.0459,0.0514,0.0533,0.0551,0.062,0.0724,0.0831,0.1009,0.1069,0.1335,0.1447,0.1604,0.1672,0.1657,0.1655,0.1706,0.1548,0.1527,0.1526,0.1506,0.1722,0.1722,0.1722,0.1722,0.1722,0,0.0378,0.0393,0.0451,0.0473,0.0495,0.0536,0.0572,0.0658,0.0763,0.0943,0.1007,0.1259,0.1448,0.1546,0.1644,0.1736,0.1764,0.1663,0.1585,0.1578,0.1554,0.1533,0.1513,0.1531,0.1529,0.1528,0.1527,0,0.0342,0.0364,0.0387,0.0443,0.0476,0.0521,0.0579,0.0621,0.0738,0.085,0.0998,0.1152,0.1394,0.1495,0.1669,0.1671,0.1611,0.1635,0.1754,0.1506,0.1404,0.1376,0.1363,0.1515,0.1516,0.1517,0.1517,0.1518,0.0302,0.0313,0.0357,0.0401,0.0451,0.0503,0.0527,0.061,0.0701,0.0872,0.0978,0.1141,0.1262,0.1494,0.1511,0.1573,0.165,0.1546,0.1549,0.1553,0.1498,0.14,0.1496,0.1497,0.1498,0.1498,0.1499,0,0.0256,0.0287,0.0322,0.0374,0.0417,0.0468,0.0535,0.0565,0.066,0.0849,0.0999,0.1033,0.1164,0.1304,0.1397,0.14,0.1371,0.1335,0.1293,0.1307,0.1319,0.1249,0.1183,0.1181,0.118,0.1179,0,0,0.0233,0.025,0.0276,0.0329,0.0382,0.043,0.0463,0.0531,0.0643,0.0778,0.0904,0.11,0.1205,0.1147,0.1189,0.1206,0.1227,0.1165,0.1425,0.1387,0.1396,0.1458,0.1369,0,0,0,0,0]},{"header":{"parameterUnit":"m.s-1","parameterCategory":2,"la1":30.2991,"la2":30.254,"lo1":-89.0895,"lo2":-89.0444,"dy":0.0017,"dx":0.0017,"nx":28,"ny":28,"refTime":"2025-07-10T21:00:00:Z","depth":"2","parameterNumber":3,"parameterNumberName":"V-component_of_CURRENTS"},"data":[0,0,0,0,0,0,0,0,0,0,0,0,0,0,0,0,0,0,0,0,0,0,0,0,0,0,0,0,0,0,0,0,0,0,0,0,0,0,0,0,0,0,0,0,0,0,0,0,0,0,0,0,0,0,0,0,0,0,-0.0763,-0.0763,0,-0.0692,-0.0691,-0.069,-0.0663,-0.0664,-0.0664,-0.0664,-0.0542,-0.0538,-0.0535,0,0,0,0,0,0,0,0,0,0,0,0,0,-0.0836,-0.0835,-0.0763,-0.0762,-0.0762,-0.0692,-0.0691,-0.069,-0.0663,-0.0664,-0.0664,-0.0664,-0.0543,-0.0539,-0.0535,0,0,0,0,0,0,0,0,0,0,0,0,0,-0.0789,-0.0835,-0.0764,-0.074,-0.0737,-0.0692,-0.0691,-0.069,-0.0663,-0.0664,-0.0664,-0.0664,-0.0544,-0.0539,-0.0534,-0.0497,0,0,-0.0518,-0.0516,0,0,0,0,0,0,0,0,-0.0792,-0.0786,-0.0744,-0.0741,-0.0738,-0.0687,-0.0672,-0.0622,-0.0663,-0.0691,-0.0664,-0.0664,-0.0585,-0.0577,-0.0564,-0.0491,-0.0486,-0.0518,-0.0515,-0.0513,-0.0511,0,0,0,0,0,0,0,-0.0795,-0.0789,-0.0735,-0.0743,-0.0739,-0.0718,-0.0712,-0.0662,-0.0637,-0.0689,-0.0687,-0.0678,-0.0583,-0.0569,-0.056,-0.0484,-0.0518,-0.0514,-0.051,-0.0508,-0.0378,-0.0378,0,0,0,0,0,0,-0.0805,-0.0792,-0.0738,-0.0733,-0.0766,-0.0717,-0.071,-0.0703,-0.0638,-0.0629,-0.0678,-0.0677,-0.0577,-0.0566,-0.0556,-0.0515,-0.0513,-0.0508,-0.0505,-0.0379,-0.0378,-0.0378,0,0,0,0,0,0,-0.0807,-0.0801,-0.074,-0.0761,-0.0752,-0.0716,-0.0707,-0.0701,-0.0678,-0.0631,-0.062,-0.066,-0.0577,-0.0563,-0.0503,-0.051,-0.0506,-0.0501,-0.0379,-0.0379,-0.0378,-0.0428,0,0,0,0,0,0,-0.0809,-0.0802,-0.0794,-0.0762,-0.0751,-0.0707,-0.0707,-0.07,-0.0672,-0.067,-0.0611,-0.0601,-0.0576,-0.0511,-0.0498,-0.0503,-0.0497,-0.038,-0.0379,-0.0378,-0.0427,-0.043,-0.0432,0,0,0,0,0,-0.0812,-0.0793,-0.0794,-0.0787,-0.0744,-0.0706,-0.0698,-0.0674,-0.0671,-0.0655,-0.0618,-0.0602,-0.0499,-0.0506,-0.0491,-0.0494,-0.038,-0.0379,-0.0378,-0.0426,-0.0429,-0.0432,0,0,0,0,0,0,-0.0809,-0.0788,-0.0788,-0.0762,-0.0736,-0.0701,-0.0677,-0.0667,-0.0626,-0.062,-0.0583,-0.0569,-0.0527,-0.0494,-0.0504,-0.0455,-0.0442,-0.0438,-0.0484,-0.0486,-0.0488,-0.0491,-0.0493,0,0,0,0,0,-0.081,-0.0796,-0.0772,-0.0749,-0.0736,-0.0708,-0.0688,-0.0674,-0.0636,-0.0619,-0.0578,-0.0539,-0.0513,-0.0485,-0.0449,-0.0406,-0.04,-0.0402,-0.0404,-0.0407,-0.0398,-0.0379,-0.0379,-0.0375,-0.0375,-0.0375,0,0,-0.0801,-0.0788,-0.0779,-0.0748,-0.0725,-0.071,-0.0695,-0.066,-0.0656,-0.0609,-0.0572,-0.0538,-0.0502,-0.0469,-0.0448,-0.044,-0.0414,-0.0406,-0.0408,-0.0398,-0.0378,-0.0379,-0.0379,-0.0375,-0.0375,-0.0375,0,0,-0.0778,-0.0766,-0.075,-0.0735,-0.0704,-0.0693,-0.0684,-0.0644,-0.0634,-0.059,-0.0575,-0.0547,-0.0474,-0.0472,-0.046,-0.0447,-0.0428,-0.0427,-0.0436,-0.0418,-0.0419,-0.0419,-0.0459,-0.0462,-0.0427,-0.0427,-0.0427,0,-0.077,-0.0754,-0.0736,-0.0721,-0.0714,-0.069,-0.0679,-0.0665,-0.0612,-0.0555,-0.0581,-0.0487,-0.0488,-0.0453,-0.0477,-0.0456,-0.0445,-0.0434,-0.0423,-0.0423,-0.0422,-0.0462,-0.0465,-0.0429,-0.0429,-0.0429,-0.0428,0,-0.0741,-0.0733,-0.0717,-0.0708,-0.0696,-0.0675,-0.0667,-0.0651,-0.0632,-0.0552,-0.0492,-0.0511,-0.0423,-0.0467,-0.0479,-0.0468,-0.0465,-0.0434,-0.0422,-0.0426,-0.0468,-0.047,-0.0432,-0.0432,-0.0431,-0.043,0,0,-0.0723,-0.0704,-0.0703,-0.0703,-0.0692,-0.0676,-0.0681,-0.0617,-0.0543,-0.0521,-0.0435,-0.0466,-0.0386,-0.0375,-0.04,-0.0451,-0.0501,-0.0447,-0.0445,-0.0498,-0.0486,-0.052,-0.0527,-0.0447,-0.0446,-0.0446,-0.0536,0,-0.0711,-0.0691,-0.0691,-0.0684,-0.0677,-0.0681,-0.0689,-0.0621,-0.0516,-0.0413,-0.0413,-0.0323,-0.0371,-0.0354,-0.0389,-0.0489,-0.0498,-0.0481,-0.0462,-0.0463,-0.0502,-0.0526,-0.0478,-0.0554,-0.0537,-0.0538,-0.0538,0,-0.0695,-0.0687,-0.068,-0.0687,-0.0684,-0.0679,-0.0625,-0.0607,-0.0445,-0.0389,-0.0251,-0.0147,-0.0214,-0.0258,-0.038,-0.0355,-0.0388,-0.0485,-0.0488,-0.0496,-0.0499,-0.0535,-0.0558,-0.0541,-0.0541,-0.0541,-0.0541,0,-0.0699,-0.0686,-0.0685,-0.0685,-0.0685,-0.0687,-0.0679,-0.0539,-0.0482,-0.031,-0.0245,-0.0152,-0.0179,-0.0236,-0.0354,-0.0349,-0.0504,-0.05,-0.0548,-0.0553,-0.0497,-0.0498,-0.0496,-0.0496,-0.0496,-0.0495,-0.0495,0,-0.0697,-0.0695,-0.0679,-0.0676,-0.0665,-0.0671,-0.058,-0.0561,-0.045,-0.0307,-0.0199,-0.0159,-0.0167,-0.0185,-0.0311,-0.0465,-0.0428,-0.0561,-0.0568,-0.052,-0.0521,-0.0479,-0.0476,-0.0499,-0.0498,-0.0497,-0.0497,0,-0.0699,-0.0695,-0.0686,-0.0676,-0.0662,-0.0647,-0.058,-0.0479,-0.0456,-0.0307,-0.0275,-0.0166,-0.0209,-0.0222,-0.0326,-0.0423,-0.0577,-0.0587,-0.0564,-0.0567,-0.0654,-0.0652,-0.0694,-0.0696,-0.0698,-0.0699,-0.07,0,-0.0695,-0.0692,-0.0667,-0.0635,-0.0618,-0.0574,-0.0528,-0.0492,-0.0372,-0.0326,-0.0273,-0.0201,-0.0138,-0.0356,-0.0414,-0.0559,-0.055,-0.0645,-0.0627,-0.0667,-0.067,-0.0665,-0.0662,-0.0598,-0.0598,-0.0598,-0.0599,0,-0.0681,-0.0676,-0.0661,-0.0589,-0.0532,-0.0461,-0.038,-0.0323,-0.026,-0.0208,-0.0155,-0.0128,-0.0204,-0.0284,-0.0427,-0.0538,-0.064,-0.0654,-0.0667,-0.0555,-0.0582,-0.0583,-0.0581,-0.0599,-0.0599,-0.0599,-0.0599,-0.0599,-0.0658,-0.0638,-0.0598,-0.0525,-0.0447,-0.0333,-0.0253,-0.0167,-0.0069,0.0037,-0.002,-0.0023,-0.0168,-0.0299,-0.0471,-0.0579,-0.0593,-0.0689,-0.0686,-0.0683,-0.0655,-0.0683,-0.0717,-0.0718,-0.0718,-0.0719,-0.0719,0,-0.0607,-0.0575,-0.0516,-0.042,-0.0307,-0.0264,-0.0134,-0.0057,0.0076,0.0151,0.0191,0.0033,-0.0118,-0.0263,-0.0418,-0.0618,-0.0592,-0.0674,-0.0603,-0.0602,-0.0602,-0.0566,-0.0607,-0.0607,-0.0607,-0.0607,0,0,-0.0575,-0.0514,-0.0481,-0.0295,-0.0198,-0.0028,0.0066,0.0143,0.0208,0.0273,0.0305,0.0236,-0.0038,-0.0148,-0.0371,-0.0462,-0.0483,-0.0479,-0.0554,-0.0443,-0.044,-0.0603,-0.0547,0,0,0,0,0]}],[{"header":{"parameterUnit":"m.s-1","parameterCategory":2,"la1":30.2991,"la2":30.254,"lo1":-89.0895,"lo2":-89.0444,"dy":0.0017,"dx":0.0017,"nx":28,"ny":28,"refTime":"2025-07-10T21:00:00:Z","depth":"4","parameterNumber":2,"parameterNumberName":"U-component_of_CURRENTS"},"data":[0,0,0,0,0,0,0,0,0,0,0,0,0,0,0,0,0,0,0,0,0,0,0,0,0,0,0,0,0,0,0,0,0,0,0,0,0,0,0,0,0,0,0,0,0,0,0,0,0,0,0,0,0,0,0,0,0,0,0.024,0.0241,0,0.0278,0.0278,0.0279,0.0322,0.0323,0.0324,0.0324,0.0386,0.0387,0.0388,0,0,0,0,0,0,0,0,0,0,0,0,0,0.0177,0.0178,0.024,0.0241,0.0241,0.0278,0.0278,0.0279,0.0322,0.0323,0.0324,0.0325,0.0386,0.0387,0.0388,0,0,0,0,0,0,0,0,0,0,0,0,0,0.0208,0.0178,0.024,0.0267,0.027,0.0278,0.0278,0.0279,0.0322,0.0323,0.0324,0.0325,0.0385,0.0387,0.0388,0.0377,0,0,0.0393,0.0393,0,0,0,0,0,0,0,0,0.0206,0.0211,0.0263,0.0265,0.0269,0.0297,0.0279,0.0313,0.0322,0.0302,0.0324,0.0326,0.0358,0.0361,0.0366,0.038,0.0383,0.0393,0.0394,0.0394,0.0395,0,0,0,0,0,0,0,0.0204,0.0209,0.0255,0.0263,0.0267,0.0268,0.0274,0.0285,0.0324,0.0304,0.0307,0.0311,0.036,0.0364,0.0368,0.0383,0.0393,0.0394,0.0395,0.0396,0.0433,0.0433,0,0,0,0,0,0,0.0201,0.0207,0.0254,0.0256,0.024,0.0268,0.0275,0.0286,0.0324,0.033,0.0311,0.0313,0.0361,0.0366,0.037,0.0403,0.0394,0.0396,0.0397,0.0433,0.0433,0.0433,0,0,0,0,0,0,0.0199,0.0205,0.0252,0.0232,0.0238,0.0269,0.0281,0.0287,0.0308,0.0328,0.0335,0.0328,0.0362,0.0368,0.0392,0.0405,0.0397,0.0398,0.0433,0.0433,0.0433,0.0442,0,0,0,0,0,0,0.0197,0.0204,0.0213,0.0232,0.0239,0.0266,0.028,0.0287,0.0308,0.0312,0.0345,0.0351,0.0363,0.039,0.0394,0.0406,0.0399,0.0433,0.0433,0.0433,0.0441,0.0442,0.0443,0,0,0,0,0,0.0195,0.0203,0.0213,0.0219,0.025,0.0266,0.027,0.0294,0.0308,0.0317,0.034,0.0351,0.0394,0.0391,0.0396,0.0409,0.0433,0.0433,0.0433,0.0441,0.0442,0.0443,0,0,0,0,0,0,0.0177,0.0209,0.022,0.0237,0.0254,0.0274,0.0285,0.0299,0.0323,0.0332,0.0353,0.036,0.0384,0.0392,0.0389,0.0419,0.0415,0.0416,0.0419,0.042,0.0421,0.0427,0.04,0,0,0,0,0,0.0177,0.0196,0.0219,0.0232,0.0243,0.0265,0.0276,0.0292,0.0313,0.0325,0.0348,0.0369,0.0384,0.04,0.0412,0.043,0.044,0.044,0.0441,0.0442,0.0448,0.0461,0.0463,0.0434,0.0434,0.0434,0,0,0.0169,0.0192,0.02,0.023,0.0247,0.0262,0.0275,0.0295,0.0309,0.0327,0.0357,0.0371,0.0387,0.0408,0.042,0.0421,0.0456,0.0442,0.0442,0.0449,0.0461,0.0464,0.0467,0.0434,0.0434,0.0434,0,0,0.0168,0.019,0.0206,0.0223,0.0252,0.0265,0.0273,0.03,0.0317,0.0338,0.0355,0.0377,0.0402,0.0418,0.0428,0.0438,0.0456,0.0445,0.0461,0.0473,0.0476,0.0478,0.0502,0.0506,0.045,0.045,0.0451,0,0.0158,0.0187,0.021,0.0231,0.0246,0.0268,0.0285,0.0298,0.0329,0.0343,0.035,0.0394,0.0405,0.0435,0.0441,0.0441,0.0457,0.0458,0.0475,0.0477,0.048,0.0503,0.0508,0.0451,0.0451,0.0451,0.0451,0,0.0169,0.0194,0.0204,0.0241,0.0257,0.0274,0.0297,0.0315,0.0335,0.035,0.0384,0.0403,0.043,0.0437,0.0445,0.0472,0.0481,0.047,0.0474,0.0483,0.0507,0.0512,0.0452,0.0451,0.0451,0.0451,0,0,0.0142,0.0201,0.0204,0.023,0.0267,0.0281,0.0303,0.033,0.0353,0.0375,0.0404,0.043,0.0445,0.0457,0.0473,0.0491,0.052,0.0495,0.0495,0.0521,0.0562,0.0568,0.0573,0.0516,0.0517,0.0517,0.0575,0,0.0145,0.0184,0.0213,0.0247,0.0271,0.0299,0.0322,0.0347,0.0369,0.0398,0.0417,0.0449,0.045,0.0474,0.0488,0.0519,0.0533,0.0506,0.0547,0.0548,0.0554,0.0579,0.052,0.0579,0.058,0.0581,0.0581,0,0.0143,0.0177,0.0207,0.0269,0.0283,0.0302,0.0348,0.0375,0.041,0.0435,0.0462,0.0472,0.0512,0.05,0.0555,0.0543,0.055,0.0567,0.0569,0.0575,0.0562,0.0565,0.059,0.059,0.0589,0.0588,0.0588,0,0.0111,0.0172,0.0198,0.0214,0.0279,0.0301,0.034,0.0382,0.0418,0.0461,0.0497,0.0521,0.0556,0.0568,0.0598,0.058,0.0656,0.0626,0.0635,0.0636,0.061,0.0606,0.0643,0.0643,0.0643,0.0643,0.0643,0,0.0098,0.0122,0.0188,0.02,0.0243,0.0298,0.0343,0.0386,0.045,0.0497,0.0521,0.0566,0.0575,0.0609,0.0616,0.0661,0.0668,0.0651,0.0653,0.0613,0.0609,0.0614,0.061,0.0645,0.0644,0.0644,0.0644,0,0.0052,0.0094,0.0127,0.0198,0.0225,0.0253,0.0349,0.0387,0.0469,0.0531,0.055,0.0611,0.0658,0.067,0.07,0.07,0.0727,0.0729,0.071,0.0708,0.0692,0.0688,0.0744,0.0745,0.0746,0.0746,0.0746,0,0.0035,0.0044,0.0107,0.0132,0.0165,0.0227,0.0273,0.0373,0.0422,0.056,0.0588,0.0652,0.0677,0.0745,0.0749,0.0768,0.0751,0.0777,0.0708,0.0707,0.0704,0.0698,0.0693,0.0747,0.0748,0.0748,0.0748,0,-0.0004,0.0008,0.0033,0.0087,0.0134,0.0196,0.0277,0.0319,0.0442,0.051,0.0619,0.0665,0.0717,0.0734,0.0758,0.0765,0.0772,0.0782,0.078,0.0715,0.0711,0.0706,0.07,0.075,0.075,0.0749,0.0749,0,-0.0042,-0.0038,-0.0002,0.005,0.0104,0.0174,0.0219,0.0315,0.0389,0.0544,0.057,0.0659,0.0702,0.0735,0.0764,0.0772,0.0747,0.0739,0.0738,0.0736,0.0707,0.0699,0.0749,0,0,0,0,0,-0.0073,-0.0058,-0.0024,0.0043,0.0097,0.0146,0.0233,0.0286,0.0395,0.046,0.0525,0.0574,0.065,0.0695,0.0694,0.0738,0.073,0.0739,0.0714,0.0761,0.0759,0.0725,0,0,0,0,0,0,-0.009,-0.0073,-0.0039,0.0034,0.0086,0.0162,0.0219,0.0292,0.034,0.0441,0.0468,0.0559,0.0606,0.0626,0.0684,0.0696,0.068,0.0789,0.0789,0.0763,0.0761,0.0759,0.0723,0,0,0,0,0]},{"header":{"parameterUnit":"m.s-1","parameterCategory":2,"la1":30.2991,"la2":30.254,"lo1":-89.0895,"lo2":-89.0444,"dy":0.0017,"dx":0.0017,"nx":28,"ny":28,"refTime":"2025-07-10T21:00:00:Z","depth":"4","parameterNumber":3,"parameterNumberName":"V-component_of_CURRENTS"},"data":[0,0,0,0,0,0,0,0,0,0,0,0,0,0,0,0,0,0,0,0,0,0,0,0,0,0,0,0,0,0,0,0,0,0,0,0,0,0,0,0,0,0,0,0,0,0,0,0,0,0,0,0,0,0,0,0,0,0,-0.0146,-0.0146,0,-0.019,-0.0191,-0.0192,-0.0221,-0.0221,-0.0221,-0.0221,-0.0312,-0.0315,-0.0317,0,0,0,0,0,0,0,0,0,0,0,0,0,-0.0112,-0.0112,-0.0146,-0.0146,-0.0147,-0.019,-0.0191,-0.0192,-0.0221,-0.0221,-0.0221,-0.0221,-0.0312,-0.0314,-0.0317,0,0,0,0,0,0,0,0,0,0,0,0,0,-0.0139,-0.0112,-0.0146,-0.0166,-0.0168,-0.019,-0.0191,-0.0192,-0.0221,-0.0221,-0.0221,-0.0221,-0.0311,-0.0314,-0.0317,-0.0336,0,0,-0.0328,-0.033,0,0,0,0,0,0,0,0,-0.0138,-0.0141,-0.0163,-0.0165,-0.0167,-0.0199,-0.0212,-0.0242,-0.0221,-0.0202,-0.0221,-0.0222,-0.0278,-0.0284,-0.0293,-0.034,-0.0344,-0.0328,-0.033,-0.0332,-0.0333,0,0,0,0,0,0,0,-0.0136,-0.0139,-0.0165,-0.0163,-0.0166,-0.0181,-0.0185,-0.0218,-0.024,-0.0204,-0.0206,-0.0209,-0.028,-0.029,-0.0295,-0.0345,-0.0328,-0.0331,-0.0334,-0.0335,-0.0484,-0.0485,0,0,0,0,0,0,-0.0127,-0.0137,-0.0163,-0.0166,-0.0151,-0.0182,-0.0186,-0.019,-0.0239,-0.0246,-0.0209,-0.021,-0.0284,-0.0291,-0.0299,-0.0379,-0.0332,-0.0335,-0.0337,-0.0482,-0.0484,-0.0486,0,0,0,0,0,0,-0.0126,-0.0129,-0.0161,-0.0152,-0.0157,-0.0182,-0.0186,-0.0191,-0.0217,-0.0242,-0.025,-0.0232,-0.0284,-0.0294,-0.0353,-0.0381,-0.0337,-0.034,-0.0479,-0.0482,-0.0485,-0.0504,0,0,0,0,0,0,-0.0125,-0.0128,-0.0138,-0.0151,-0.0157,-0.0193,-0.0186,-0.0191,-0.0218,-0.022,-0.0265,-0.0272,-0.0285,-0.0348,-0.0356,-0.0385,-0.0343,-0.0477,-0.0481,-0.0484,-0.0501,-0.0507,-0.0513,0,0,0,0,0,-0.0123,-0.014,-0.0138,-0.0142,-0.0166,-0.0194,-0.02,-0.0218,-0.0219,-0.0241,-0.0273,-0.0272,-0.0376,-0.0352,-0.0362,-0.0392,-0.0475,-0.048,-0.0484,-0.0499,-0.0506,-0.0513,0,0,0,0,0,0,-0.014,-0.0145,-0.0143,-0.0163,-0.0183,-0.0199,-0.0223,-0.0229,-0.0269,-0.0277,-0.0296,-0.0307,-0.037,-0.0383,-0.0356,-0.0447,-0.0426,-0.0432,-0.0434,-0.0441,-0.0447,-0.0431,-0.0346,0,0,0,0,0,-0.0144,-0.0155,-0.0164,-0.0184,-0.0193,-0.0209,-0.0225,-0.0236,-0.0266,-0.0283,-0.0312,-0.035,-0.0393,-0.0417,-0.0456,-0.0505,-0.0497,-0.0532,-0.0538,-0.0542,-0.0538,-0.0562,-0.0569,-0.05,-0.05,-0.05,0,0,-0.0155,-0.0161,-0.0167,-0.0188,-0.0203,-0.0225,-0.0221,-0.0252,-0.0276,-0.0288,-0.0343,-0.0374,-0.0412,-0.0469,-0.0498,-0.0483,-0.0556,-0.0547,-0.0551,-0.0544,-0.0567,-0.0574,-0.0579,-0.0503,-0.0502,-0.0502,0,0,-0.018,-0.0189,-0.0204,-0.022,-0.0243,-0.0254,-0.0265,-0.0291,-0.0313,-0.0364,-0.0381,-0.0428,-0.0492,-0.0519,-0.0541,-0.0603,-0.0588,-0.0622,-0.0634,-0.0659,-0.0664,-0.0668,-0.065,-0.0653,-0.0621,-0.0621,-0.0621,0,-0.0197,-0.0206,-0.0217,-0.0236,-0.0247,-0.0267,-0.0286,-0.0316,-0.036,-0.0378,-0.039,-0.0476,-0.0514,-0.0567,-0.0595,-0.0614,-0.0611,-0.0601,-0.0663,-0.0668,-0.0672,-0.0653,-0.0655,-0.0622,-0.0622,-0.0622,-0.0622,0,-0.0226,-0.0236,-0.0251,-0.0272,-0.0294,-0.0316,-0.0344,-0.0379,-0.0404,-0.0425,-0.0487,-0.0532,-0.058,-0.0604,-0.0624,-0.0676,-0.0656,-0.0667,-0.0637,-0.0679,-0.0657,-0.0659,-0.0625,-0.0624,-0.0624,-0.0623,0,0,-0.0261,-0.0264,-0.0274,-0.0267,-0.0308,-0.032,-0.0373,-0.041,-0.0434,-0.0487,-0.0517,-0.0599,-0.0613,-0.064,-0.0666,-0.0689,-0.0721,-0.0694,-0.0695,-0.066,-0.0745,-0.0702,-0.07,-0.0743,-0.0744,-0.0745,-0.0711,0,-0.0281,-0.0287,-0.03,-0.0319,-0.0319,-0.035,-0.0386,-0.0427,-0.0472,-0.0513,-0.0558,-0.0607,-0.063,-0.0656,-0.0688,-0.0714,-0.0732,-0.0727,-0.0724,-0.0723,-0.0667,-0.0704,-0.0749,-0.0712,-0.0713,-0.0713,-0.0713,0,-0.0311,-0.03,-0.0307,-0.03,-0.0307,-0.0336,-0.0379,-0.0416,-0.0484,-0.0516,-0.057,-0.0609,-0.066,-0.0677,-0.0723,-0.0719,-0.0741,-0.0751,-0.075,-0.0704,-0.0686,-0.0669,-0.0717,-0.0717,-0.0717,-0.0716,-0.0716,0,-0.0305,-0.031,-0.0302,-0.0307,-0.0315,-0.0338,-0.036,-0.0423,-0.0441,-0.0526,-0.0539,-0.0611,-0.0638,-0.0682,-0.0721,-0.073,-0.0749,-0.0763,-0.0734,-0.0729,-0.0765,-0.0761,-0.0801,-0.0801,-0.0801,-0.0801,-0.0801,0,-0.0312,-0.0309,-0.0297,-0.0294,-0.0292,-0.0318,-0.0345,-0.0385,-0.0433,-0.0442,-0.0537,-0.0542,-0.0646,-0.0674,-0.0711,-0.0716,-0.0744,-0.0734,-0.0727,-0.0773,-0.077,-0.0765,-0.0761,-0.08,-0.08,-0.08,-0.08,0,-0.0311,-0.0305,-0.0287,-0.0285,-0.0289,-0.0295,-0.0315,-0.0329,-0.038,-0.0397,-0.0419,-0.0494,-0.0538,-0.061,-0.0675,-0.0687,-0.0708,-0.0707,-0.072,-0.0714,-0.0667,-0.0665,-0.0665,-0.0663,-0.0662,-0.0661,-0.066,0,-0.0304,-0.0295,-0.0276,-0.0266,-0.0272,-0.0277,-0.0281,-0.0314,-0.0322,-0.0344,-0.0339,-0.0402,-0.0455,-0.0484,-0.0582,-0.0645,-0.0662,-0.0657,-0.07,-0.0665,-0.0658,-0.0658,-0.0658,-0.0658,-0.0657,-0.0657,-0.0656,0,-0.0285,-0.0288,-0.0268,-0.025,-0.0248,-0.0232,-0.0239,-0.0227,-0.0253,-0.0273,-0.0261,-0.0309,-0.0357,-0.0444,-0.0511,-0.0554,-0.0653,-0.0643,-0.0647,-0.0687,-0.0656,-0.0651,-0.0653,-0.0652,-0.0652,-0.0653,-0.0653,0,-0.0276,-0.026,-0.0246,-0.0233,-0.0222,-0.0211,-0.0204,-0.0191,-0.019,-0.0204,-0.0185,-0.0255,-0.031,-0.0393,-0.0435,-0.0499,-0.0519,-0.0521,-0.0532,-0.0538,-0.0528,-0.0472,-0.0403,0,0,0,0,0,-0.0266,-0.0254,-0.0231,-0.0217,-0.0207,-0.0213,-0.0187,-0.018,-0.0175,-0.015,-0.0169,-0.0208,-0.0286,-0.0327,-0.0382,-0.0436,-0.0551,-0.05,-0.0564,-0.0626,-0.0631,-0.064,0,0,0,0,0,0,-0.0258,-0.024,-0.0228,-0.0218,-0.0215,-0.0208,-0.0195,-0.0183,-0.0166,-0.016,-0.0205,-0.0208,-0.0303,-0.0271,-0.0386,-0.0406,-0.0444,-0.0545,-0.0545,-0.0623,-0.0628,-0.0632,-0.0643,0,0,0,0,0]}]]